FW3182 Weather Reports


Display with metric or nautical units.
time (UTC)temp
F
wind
direction
speed
MPH
gust
MPH
rain 1hr
in
rain 24hr
in
rain mn
in
humidity
%
barometer
mb
20260906021703 87 59 1.0 3.0 0.00 0.00 0.00 60 1009.8
20260906021204 87 23 0.0 2.0 0.00 0.00 0.00 60 1009.6
20260906020703 87 23 0.0 0.0 0.00 0.00 0.00 59 1009.5
20260906020204 87 23 0.0 0.0 0.00 0.00 0.00 59 1009.5
20260906015703 88 23 0.0 3.0 0.00 0.00 0.00 58 1009.5
20260906015204 88 8 0.0 0.0 0.00 0.00 0.00 56 1009.4
20260906014703 89 55 0.0 3.0 0.00 0.00 0.00 55 1009.3
20260906014204 90 73 1.0 3.0 0.00 0.00 0.00 54 1009.3
20260906013204 90 68 2.0 3.0 0.00 0.00 0.00 52 1009.1
20260906012704 90 11 0.0 0.0 0.00 0.00 0.00 51 1009.0
20260906012204 90 11 0.0 0.0 0.00 0.00 0.00 51 1008.9
20260906011703 90 11 0.0 0.0 0.00 0.00 0.00 51 1008.9
20260906011204 90 11 0.0 0.0 0.00 0.00 0.00 51 1008.8
20260906005704 91 11 0.0 0.0 0.00 0.00 0.00 50 1008.7
20260906004704 91 11 0.0 0.0 0.00 0.00 0.00 49 1008.6
20260906003703 92 11 0.0 0.0 0.00 0.00 0.00 48 1008.7
20260906003203 93 11 0.0 0.0 0.00 0.00 0.00 48 1008.6
20260906002704 94 11 0.0 0.0 0.00 0.00 0.00 47 1008.6
20260906002203 95 11 0.0 0.0 0.00 0.00 0.00 46 1008.6
20260906001704 95 11 0.0 0.0 0.00 0.00 0.00 45 1008.5
20260906001204 97 11 0.0 0.0 0.00 0.00 0.00 44 1008.6
20260906000703 97 11 0.0 0.0 0.00 0.00 0.00 44 1008.6
20260906000204 98 11 0.0 0.0 0.00 0.00 0.00 42 1008.6
20260905235703 99 11 0.0 0.0 0.00 0.00 0.00 41 1008.6
20260905235204 100 11 0.0 1.0 0.00 0.00 0.00 40 1008.6
20260905234704 100 55 0.0 1.0 0.00 0.00 0.00 40 1008.6
20260905234203 101 46 0.0 2.0 0.00 0.00 0.00 40 1008.6
20260905233704 102 197 0.0 1.0 0.00 0.00 0.00 38 1008.6
20260905233204 102 238 0.0 1.0 0.00 0.00 0.00 39 1008.6
20260905232703 101 238 0.0 2.0 0.00 0.00 0.00 39 1008.6
20260905231704 102 347 0.0 1.0 0.00 0.00 0.00 37 1008.7
20260905231203 102 336 0.0 1.0 0.00 0.00 0.00 37 1008.7
20260905230704 102 56 0.0 0.0 0.00 0.00 0.00 38 1008.7
20260905230203 102 240 1.0 2.0 0.00 0.00 0.00 36 1008.6
20260905225204 102 42 0.0 2.0 0.00 0.00 0.00 38 1008.5
20260905224704 100 43 0.0 1.0 0.00 0.00 0.00 38 1008.4
20260905224204 100 54 1.0 3.0 0.00 0.00 0.00 38 1008.4
20260905223703 101 65 1.0 2.0 0.00 0.00 0.00 37 1008.4
20260905223204 101 38 1.0 2.0 0.00 0.00 0.00 37 1008.4
20260905222704 101 50 2.0 6.0 0.00 0.00 0.00 37 1008.4
20260905222204 102 340 0.0 1.0 0.00 0.00 0.00 36 1008.4
20260905221704 102 63 0.0 2.0 0.00 0.00 0.00 37 1008.5
20260905221203 103 47 1.0 3.0 0.00 0.00 0.00 36 1008.5
20260905220703 103 58 0.0 3.0 0.00 0.00 0.00 37 1008.6
20260905220204 102 247 1.0 2.0 0.00 0.00 0.00 37 1008.6
20260905215704 101 212 1.0 2.0 0.00 0.00 0.00 39 1008.6
20260905215204 100 59 2.0 5.0 0.00 0.00 0.00 39 1008.8
20260905214704 101 6 2.0 5.0 0.00 0.00 0.00 39 1008.8
20260905213704 102 56 1.0 3.0 0.00 0.00 0.00 38 1008.9
20260905213204 102 260 0.0 2.0 0.00 0.00 0.00 40 1008.9
20260905212204 100 168 1.0 3.0 0.00 0.00 0.00 40 1009.0
20260905211704 99 163 1.0 2.0 0.00 0.00 0.00 40 1009.0
20260905211203 99 214 0.0 2.0 0.00 0.00 0.00 40 1009.2
20260905210704 99 253 0.0 2.0 0.00 0.00 0.00 40 1009.3
20260905210204 100 247 0.0 1.0 0.00 0.00 0.00 40 1009.3
20260905205704 100 257 0.0 1.0 0.00 0.00 0.00 41 1009.4
20260905205203 100 263 1.0 3.0 0.00 0.00 0.00 40 1009.5
20260905204704 99 275 1.0 6.0 0.00 0.00 0.00 40 1009.6
20260905204204 99 322 1.0 5.0 0.00 0.00 0.00 42 1009.7
20260905203704 99 0 1.0 6.0 0.00 0.00 0.00 41 1009.7
20260905203203 99 33 1.0 2.0 0.00 0.00 0.00 41 1009.8
20260905201704 99 57 1.0 7.0 0.00 0.00 0.00 41 1010.0
20260905201204 100 20 2.0 7.0 0.00 0.00 0.00 40 1010.1
20260905200204 101 297 0.0 3.0 0.00 0.00 0.00 41 1010.1
20260905195704 100 203 1.0 5.0 0.00 0.00 0.00 43 1010.2
20260905195204 99 83 3.0 7.0 0.00 0.00 0.00 42 1010.2
20260905194703 100 350 1.0 3.0 0.00 0.00 0.00 41 1010.4
20260905194204 100 251 2.0 3.0 0.00 0.00 0.00 43 1010.3
20260905193704 99 333 1.0 3.0 0.00 0.00 0.00 43 1010.4
20260905193203 99 286 3.0 8.0 0.00 0.00 0.00 43 1010.4
20260905192704 99 293 0.0 3.0 0.00 0.00 0.00 43 1010.6
20260905192204 99 294 1.0 3.0 0.00 0.00 0.00 45 1010.8
20260905191703 98 101 1.0 2.0 0.00 0.00 0.00 46 1010.8
20260905191204 97 116 0.0 1.0 0.00 0.00 0.00 47 1010.8
20260905190204 96 201 0.0 3.0 0.00 0.00 0.00 46 1011.0
20260905185703 97 251 0.0 1.0 0.00 0.00 0.00 45 1011.1
20260905185203 96 325 1.0 3.0 0.00 0.00 0.00 49 1011.2
20260905184704 96 51 0.0 5.0 0.00 0.00 0.00 49 1011.2
20260905183703 96 291 1.0 2.0 0.00 0.00 0.00 48 1011.4
20260905182704 96 322 1.0 12.0 0.00 0.00 0.00 50 1011.5
20260905182204 95 74 0.0 1.0 0.00 0.00 0.00 50 1011.7
20260905181704 95 64 1.0 2.0 0.00 0.00 0.00 49 1011.7
20260905181204 96 255 3.0 6.0 0.00 0.00 0.00 47 1011.7
20260905180704 97 263 1.0 6.0 0.00 0.00 0.00 48 1011.8
20260905175704 97 322 2.0 3.0 0.00 0.00 0.00 50 1011.9
20260905175204 96 249 1.0 7.0 0.00 0.00 0.00 49 1012.0
20260905174703 96 250 0.0 3.0 0.00 0.00 0.00 47 1012.0
20260905174203 96 42 2.0 3.0 0.00 0.00 0.00 47 1012.2
20260905173704 97 85 2.0 3.0 0.00 0.00 0.00 48 1012.3
20260905173204 96 205 1.0 6.0 0.00 0.00 0.00 50 1012.1
20260905172704 97 270 2.0 7.0 0.00 0.00 0.00 49 1012.2
20260905171204 95 49 2.0 3.0 0.00 0.00 0.00 51 1012.5
20260905170703 95 82 2.0 7.0 0.00 0.00 0.00 51 1012.5
20260905170204 96 43 3.0 6.0 0.00 0.00 0.00 51 1012.5
20260905165703 96 288 1.0 5.0 0.00 0.00 0.00 51 1012.6
20260905165203 95 311 1.0 5.0 0.00 0.00 0.00 51 1012.6
20260905164704 95 280 2.0 3.0 0.00 0.00 0.00 52 1012.6
20260905164204 94 307 2.0 7.0 0.00 0.00 0.00 52 1012.6
20260905163703 94 54 2.0 5.0 0.00 0.00 0.00 52 1012.7
20260905163203 94 46 2.0 7.0 0.00 0.00 0.00 54 1012.9
20260905162704 94 268 2.0 3.0 0.00 0.00 0.00 55 1012.8
20260905162204 93 274 2.0 6.0 0.00 0.00 0.00 54 1012.8
20260905160704 92 270 2.0 6.0 0.00 0.00 0.00 55 1013.0
20260905155703 92 265 2.0 7.0 0.00 0.00 0.00 57 1012.9
20260905155204 92 264 3.0 6.0 0.00 0.00 0.00 57 1013.0
20260905154203 91 273 4.0 7.0 0.00 0.00 0.00 58 1012.9
20260905153204 90 296 1.0 3.0 0.00 0.00 0.00 60 1012.9
20260905152704 90 240 2.0 7.0 0.00 0.00 0.00 59 1012.9
20260905152204 90 287 2.0 6.0 0.00 0.00 0.00 60 1012.8
20260905151704 90 278 2.0 9.0 0.00 0.00 0.00 60 1012.8
20260905151203 90 248 3.0 7.0 0.00 0.00 0.00 62 1012.7
20260905150704 89 263 0.0 2.0 0.00 0.00 0.00 63 1012.7
20260905150203 89 215 2.0 5.0 0.00 0.00 0.00 62 1012.7
20260905145703 88 249 3.0 6.0 0.00 0.00 0.00 63 1012.7
20260905145204 88 197 3.0 6.0 0.00 0.00 0.00 64 1012.6
20260905144704 87 167 2.0 6.0 0.00 0.00 0.00 65 1012.6
20260905144204 87 196 2.0 5.0 0.00 0.00 0.00 65 1012.7
20260905143704 86 198 2.0 5.0 0.00 0.00 0.00 66 1012.6
20260905143204 86 207 2.0 6.0 0.00 0.00 0.00 66 1012.6
20260905142704 86 216 2.0 3.0 0.00 0.00 0.00 67 1012.6
20260905141704 85 176 0.0 1.0 0.00 0.00 0.00 69 1012.6
20260905141203 85 231 1.0 3.0 0.00 0.00 0.00 68 1012.7
20260905140703 85 205 0.0 1.0 0.00 0.00 0.00 69 1012.7
20260905140204 84 205 0.0 2.0 0.00 0.00 0.00 71 1012.7
20260905135703 83 198 0.0 2.0 0.00 0.00 0.00 72 1012.7
20260905135204 83 195 0.0 1.0 0.00 0.00 0.00 72 1012.6
20260905134703 82 201 1.0 3.0 0.00 0.00 0.00 72 1012.6
20260905134204 82 199 1.0 2.0 0.00 0.00 0.00 72 1012.7
20260905133203 81 209 0.0 0.0 0.00 0.00 0.00 75 1012.6
20260905132703 81 210 0.0 0.0 0.00 0.00 0.00 76 1012.7
20260905131704 80 210 0.0 0.0 0.00 0.00 0.00 78 1012.5
20260905131204 78 98 0.0 0.0 0.00 0.00 0.00 81 1012.5
20260905130204 76 98 0.0 0.0 0.00 0.00 0.00 83 1012.6
20260905125704 75 98 0.0 0.0 0.00 0.00 0.00 85 1012.5
20260905124703 74 98 0.0 0.0 0.00 0.00 0.00 86 1012.5
20260905124203 73 98 0.0 0.0 0.00 0.00 0.00 86 1012.4
20260905123704 73 98 0.0 0.0 0.00 0.00 0.00 86 1012.4
20260905122704 73 98 0.0 0.0 0.00 0.00 0.00 87 1012.3
20260905122203 73 97 0.0 0.0 0.00 0.00 0.00 87 1012.3
20260905121703 72 98 0.0 0.0 0.00 0.00 0.00 86 1012.3
20260905120704 72 98 0.0 0.0 0.00 0.00 0.00 86 1012.1
20260905120204 72 98 0.0 0.0 0.00 0.00 0.00 86 1012.0
20260905115704 72 97 0.0 0.0 0.00 0.00 0.00 87 1011.9
20260905115203 72 98 0.0 0.0 0.00 0.00 0.00 87 1012.0
20260905114704 72 98 0.0 0.0 0.00 0.00 0.00 86 1012.0
20260905114204 72 98 0.0 0.0 0.00 0.00 0.00 87 1012.0
20260905113703 72 97 0.0 0.0 0.00 0.00 0.00 87 1012.0
20260905113203 72 97 0.0 0.0 0.00 0.00 0.00 87 1012.0
20260905112704 72 97 0.0 0.0 0.00 0.00 0.00 87 1012.0
20260905112204 72 97 0.0 0.0 0.00 0.00 0.00 87 1011.9
20260905111704 72 97 0.0 0.0 0.00 0.00 0.00 86 1011.9
20260905111203 73 97 0.0 0.0 0.00 0.00 0.00 86 1011.8
20260905110704 73 98 0.0 0.0 0.00 0.00 0.00 85 1011.8
20260905110204 73 97 0.0 0.0 0.00 0.00 0.00 85 1011.7
20260905105704 73 98 0.0 0.0 0.00 0.00 0.00 85 1011.7
20260905104704 74 97 0.0 0.0 0.00 0.00 0.00 84 1011.7
20260905104204 74 97 0.0 0.0 0.00 0.00 0.00 84 1011.7
20260905103703 74 98 0.0 0.0 0.00 0.00 0.00 84 1011.7
20260905103204 74 97 0.0 0.0 0.00 0.00 0.00 83 1011.8
20260905102704 74 98 0.0 0.0 0.00 0.00 0.00 83 1011.8
20260905102204 74 97 0.0 0.0 0.00 0.00 0.00 82 1011.8
20260905100704 75 98 0.0 0.0 0.00 0.00 0.00 81 1011.5
20260905100203 75 97 0.0 0.0 0.00 0.00 0.00 80 1011.5
20260905095704 76 97 0.0 0.0 0.00 0.00 0.00 80 1011.6
20260905095204 75 97 0.0 0.0 0.00 0.00 0.00 80 1011.6
20260905094703 75 98 0.0 0.0 0.00 0.00 0.00 81 1011.5
20260905093204 76 97 0.0 0.0 0.00 0.00 0.00 80 1011.6
20260905092703 76 97 0.0 0.0 0.00 0.00 0.00 79 1011.6
20260905092204 76 97 0.0 0.0 0.00 0.00 0.00 79 1011.5
20260905091703 76 97 0.0 0.0 0.00 0.00 0.00 78 1011.5
20260905091203 77 97 0.0 0.0 0.00 0.00 0.00 78 1011.4
20260905090204 77 98 0.0 0.0 0.00 0.00 0.00 77 1011.4
20260905085703 77 97 0.0 0.0 0.00 0.00 0.00 77 1011.4
20260905085203 77 98 0.0 0.0 0.00 0.00 0.00 77 1011.3
20260905084704 77 98 0.0 0.0 0.00 0.00 0.00 76 1011.3
20260905084204 77 97 0.0 0.0 0.00 0.00 0.00 76 1011.3
20260905083703 77 98 0.0 0.0 0.00 0.00 0.00 76 1011.3
20260905083203 77 97 0.0 0.0 0.00 0.00 0.00 76 1011.2
20260905082704 77 98 0.0 0.0 0.00 0.00 0.00 76 1011.3
20260905082204 77 98 0.0 0.0 0.00 0.00 0.00 76 1011.3
20260905080704 77 97 0.0 0.0 0.00 0.00 0.00 76 1011.3
20260905075704 78 97 0.0 0.0 0.00 0.00 0.00 75 1011.3
20260905075203 78 97 0.0 0.0 0.00 0.00 0.00 75 1011.3
20260905074704 78 97 0.0 0.0 0.00 0.00 0.00 74 1011.4
20260905074203 79 97 0.0 0.0 0.00 0.00 0.00 73 1011.4
20260905073704 79 98 0.0 0.0 0.00 0.00 0.00 72 1011.4
20260905073204 79 98 0.0 0.0 0.00 0.00 0.00 72 1011.5
20260905072704 79 97 0.0 0.0 0.00 0.00 0.00 72 1011.4
20260905071703 79 93 0.0 0.0 0.00 0.00 0.00 72 1011.5
20260905071203 80 93 0.0 0.0 0.00 0.00 0.00 71 1011.5
20260905070704 79 93 0.0 0.0 0.00 0.00 0.00 72 1011.5
20260905070204 79 93 0.0 0.0 0.00 0.00 0.00 72 1011.7
20260905065704 79 139 0.0 0.0 0.00 0.00 0.00 72 1011.7
20260905065204 79 139 0.0 0.0 0.00 0.00 0.00 72 1011.7
20260905064204 80 139 0.0 0.0 0.00 0.00 0.00 72 1011.8
20260905063704 80 139 0.0 0.0 0.00 0.00 0.00 70 1011.8
20260905063204 81 139 0.0 0.0 0.00 0.00 0.00 70 1011.9
20260905062704 81 139 0.0 0.0 0.00 0.00 0.00 69 1011.8
20260905062204 81 140 0.0 0.0 0.00 0.00 0.00 69 1011.8
20260905061204 81 139 0.0 0.0 0.00 0.00 0.00 70 1011.8
20260905060203 80 204 0.0 0.0 0.00 0.00 0.00 71 1011.8
20260905055704 80 209 0.0 0.0 0.00 0.00 0.00 70 1011.9
20260905055204 80 209 0.0 0.0 0.00 0.00 0.00 70 1011.8
20260905054703 81 209 0.0 0.0 0.00 0.00 0.00 70 1011.7
20260905054204 81 209 0.0 0.0 0.00 0.00 0.00 69 1011.9
20260905053703 81 209 0.0 0.0 0.00 0.00 0.00 69 1011.9
20260905052703 81 209 0.0 0.0 0.00 0.00 0.00 68 1011.8
20260905052204 82 215 0.0 0.0 0.00 0.00 0.00 68 1011.8
20260905051703 81 216 0.0 0.0 0.00 0.00 0.00 68 1011.8
20260905051204 82 124 0.0 0.0 0.00 0.00 0.00 68 1011.7
20260905050204 81 124 0.0 0.0 0.00 0.00 0.00 68 1011.7
20260905045705 82 124 0.0 0.0 0.00 0.00 0.00 68 1011.7
20260905045203 82 124 0.0 0.0 0.00 0.00 0.00 67 1011.7
20260905044704 82 124 0.0 0.0 0.00 0.00 0.00 68 1011.8
20260905044203 82 124 0.0 0.0 0.00 0.00 0.00 67 1011.7
20260905043204 82 124 0.0 0.0 0.00 0.00 0.00 67 1011.7
20260905042704 83 124 0.0 0.0 0.00 0.00 0.00 66 1011.6
20260905042203 83 124 0.0 0.0 0.00 0.00 0.00 66 1011.7
20260905041704 83 124 0.0 0.0 0.00 0.00 0.00 65 1011.7
20260905041203 83 124 0.0 0.0 0.00 0.00 0.00 65 1011.6
20260905040703 84 124 0.0 0.0 0.00 0.00 0.00 64 1011.6
20260905040204 84 124 0.0 0.0 0.00 0.00 0.00 64 1011.6
20260905035204 85 124 0.0 0.0 0.00 0.00 0.00 63 1011.7
20260905034704 85 124 0.0 0.0 0.00 0.00 0.00 62 1011.7
20260905033204 85 124 0.0 0.0 0.00 0.00 0.00 61 1011.7
20260905032704 86 124 0.0 0.0 0.00 0.00 0.00 61 1011.6
20260905032204 86 124 0.0 0.0 0.00 0.00 0.00 61 1011.5
20260905031703 86 124 0.0 1.0 0.00 0.00 0.00 60 1011.5
20260905031204 86 119 0.0 1.0 0.00 0.00 0.00 60 1011.5
20260905030704 86 111 0.0 1.0 0.00 0.00 0.00 60 1011.5
20260905030204 86 117 0.0 1.0 0.00 0.00 0.00 59 1011.5
20260905025204 86 182 0.0 0.0 0.00 0.00 0.00 60 1011.3
20260905024704 86 148 0.0 1.0 0.00 0.00 0.00 60 1011.3
20260905024204 86 193 0.0 1.0 0.00 0.00 0.00 60 1011.2
20260905023704 85 148 0.0 0.0 0.00 0.00 0.00 60 1011.1
20260905023204 86 148 0.0 0.0 0.00 0.00 0.00 60 1011.0